SL-16 DEB, 22326

Orbit data source: Space-Track

SL-16 DEB, 22326 is space debris in LEO originally from a launch on Fri, 25 Dec 1992 UTC launched from the Tyuratam Missile And Space Complex (TTMTR). Debris objects in space refer to the collection of defunct objects orbiting the Earth. Examples of debris include non-operational satellites, rocket bodies, and fragments generated from explosions, collisions, or faulty payload assembly.

Loading next visibility...
Identifier
22326, 1992-093P
Orbit
LEO
Country
Flag of CISCIS
Related business
Manufacturer
Unknown
Mission
Spacecraft
Bus & Motor
Unknown
Mass
Unknown
Launch date (UTC)
1992-12-25 (33 years ago)
Launch vehicle
Unknown
Launch site
Tyuratam Missile And Space Complex (TTMTR)
Object type
Payload
Rocket body
Debris
Shape & HBR
Unknown shape, 0.1 m
Radar Cross Section
Small (<0.1 m²)

Expand to show TLE details & history
Last TLE update: 5 hours ago

TLE from 5 hours ago
0 SL-16 DEB
1 22326U 92093P   25296.79490865  .00001544  00000-0  10284-2 0  9991
2 22326  70.6609 223.6367 0140674 225.3796 164.2991 13.98130361661437
Epoch: 2025-10-23T19:04Z
TLE epoch observation values (Epoch: 2025-10-23T19:04:40.107Z)
Latitude
28.3022°
Longitude
-84.14253°
Altitude
1,001.896 km
Speed
7.304 km/s
True Right ascension
15h 37m 53s
True Declination
28° 09' 49"
Sunlit
Object was in daylight at epoch
Visualization orbit readout
Latitude
Unknown
Longitude
Unknown
Altitude
Unknown
Speed
Unknown
Apparent Right ascension
Unknown
Apparent Declination
Unknown
Sunlit
N/A
Visualization observer readout
Local Sidereal Time
19:32:42
Azimuth
Unknown
Elevation
Unknown
Doppler factor
Unknown
Orbital elements
Apogee altitude
1,000.611 km
Perigee altitude
795.891 km
Semi-major axis
7,276.388 km
Eccentricity
0.01407
Inclination
70.6609°
RAAN
223.6367°
Arg. of periapsis
225.3796°
True anomaly
164.72806°
Mean anomaly
164.2991°
Eccentric anomaly
164.5143°
Mean motion
3.49679 °/min
Orbital period
102.95 mins
BSTAR
0.0010284
Loading maneuver chart data...
Computing Atmospheric mass density...
Loading historical data...
Loading historical data...
Loading historical data...
Loading historical data...
Loading historical data...
Loading historical data...
Loading historical data...

Documentation

Showing up to 5 results
|